KINEIS-4B

Last updated on Thu Oct 23 2025 00:02:50 GMT+0000 (Coordinated Universal Time)

1 63304U 25056E 25295.48685218 .00003514 00000+0 56435-3 0 9997 2 63304 97.9979 59.0930 0001773 327.8718 32.2381 14.72251566 32146
UTC large
Height (km)
Speed (km/s)
/
Latitude / Longitude
Inclination (degrees)
Orbital Period (minutes)
Azimuth
Elevation
Range (km)
Doppler Factor

Next 0 passes for location: London (51.5072 / 0.1276)

Sorry there are no passes over London.